Zurück zum Katalog

FREGAT DEB

AktivUNKNOWN
NORAD 45829·DEBRIS·🇷🇺 Russia

Gestartet Jul 18, 2011 von Baikonur Cosmodrome

Loading…

Nächste Überflüge (nächste 24 Stunden)

TLE

AktuellSource: Space-Track

Epoche: Sep 13, 2026, 01:38 UTC

1 45829U 11037BP  26256.06809020  .00037124  00000-0  23763-2 0  9996
2 45829  51.4063 263.4858 1219747 354.4818   4.3587 12.93789467274364

Verfolge FREGAT DEB in Echtzeit mit AllMySat

Download on the App Store